Time,TemperatureF,DewpointF,PressureIn,WindDirection,WindDirectionDegrees,WindSpeedMPH,WindSpeedGustMPH,Humidity,HourlyPrecipIn,Conditions,Clouds,dailyrainin,SoftwareType,DateUTC
2013-04-30 00:01:00,47.0,20.0,-100.00,West,260,7.0,12.0,33,-99.99,,,-99.99,,2013-04-30 06:01:00,
2013-04-30 00:11:00,47.0,20.0,-100.00,WSW,255,6.0,12.0,34,-99.99,,,-99.99,,2013-04-30 06:11:00,
2013-04-30 00:21:00,45.0,19.0,-100.00,SW,220,1.0,10.0,34,-99.99,,,-99.99,,2013-04-30 06:21:00,
2013-04-30 00:31:00,45.0,19.0,-100.00,NNW,330,4.0,8.0,35,-99.99,,,-99.99,,2013-04-30 06:31:00,
2013-04-30 00:41:00,45.0,19.0,-100.00,NW,310,4.0,8.0,34,-99.99,,,-99.99,,2013-04-30 06:41:00,
2013-04-30 00:51:00,44.0,18.0,-100.00,NW,315,7.0,9.0,35,-99.99,,,-99.99,,2013-04-30 06:51:00,
2013-04-30 01:01:00,46.0,18.0,-100.00,WNW,300,12.0,-999.0,31,-99.99,,,-99.99,,2013-04-30 07:01:00,
2013-04-30 01:11:00,45.0,17.0,-100.00,NW,325,9.0,17.0,31,-99.99,,,-99.99,,2013-04-30 07:11:00,
2013-04-30 01:21:00,42.0,15.0,-100.00,NNW,335,9.0,12.0,33,-99.99,,,-99.99,,2013-04-30 07:21:00,
2013-04-30 01:31:00,40.0,15.0,-100.00,NNE,15,5.0,11.0,35,-99.99,,,-99.99,,2013-04-30 07:31:00,
2013-04-30 01:41:00,39.0,15.0,-100.00,West,265,3.0,-999.0,37,-99.99,,,-99.99,,2013-04-30 07:41:00,
2013-04-30 01:52:00,39.0,15.0,-100.00,West,265,3.0,-999.0,37,-99.99,,,-99.99,,2013-04-30 07:52:00,
2013-04-30 02:02:00,35.0,16.0,-100.00,North,-999,-999.0,-999.0,45,-99.99,,,-99.99,,2013-04-30 08:02:00,
2013-04-30 02:11:00,35.0,18.0,-100.00,NW,325,5.0,-999.0,48,-99.99,,,-99.99,,2013-04-30 08:11:00,
2013-04-30 02:21:00,35.0,18.0,-100.00,NW,310,7.0,-999.0,50,-99.99,,,-99.99,,2013-04-30 08:21:00,
2013-04-30 02:32:00,35.0,18.0,-100.00,NW,310,7.0,-999.0,50,-99.99,,,-99.99,,2013-04-30 08:32:00,
2013-04-30 02:51:00,30.0,21.0,-100.00,SE,135,4.0,-999.0,70,-99.99,,,-99.99,,2013-04-30 08:51:00,
2013-04-30 03:01:00,30.0,23.0,-100.00,East,100,6.0,-999.0,75,-99.99,,,-99.99,,2013-04-30 09:01:00,
2013-04-30 03:11:00,30.0,24.0,-100.00,East,100,7.0,9.0,77,-99.99,,,-99.99,,2013-04-30 09:11:00,
2013-04-30 03:21:00,28.0,23.0,-100.00,SSE,150,9.0,-999.0,81,-99.99,,,-99.99,,2013-04-30 09:21:00,
2013-04-30 03:32:00,27.0,23.0,-100.00,SE,140,7.0,10.0,83,-99.99,,,-99.99,,2013-04-30 09:32:00,
2013-04-30 03:42:00,28.0,24.0,-100.00,SE,135,7.0,9.0,84,-99.99,,,-99.99,,2013-04-30 09:42:00,
2013-04-30 03:52:00,27.0,24.0,-100.00,North,-999,-999.0,-999.0,86,-99.99,,,-99.99,,2013-04-30 09:52:00,
2013-04-30 04:02:00,27.0,24.0,-100.00,North,-999,-999.0,-999.0,86,-99.99,,,-99.99,,2013-04-30 10:02:00,
2013-04-30 06:01:00,30.0,26.0,-100.00,North,-999,-999.0,-999.0,86,-99.99,,,-99.99,,2013-04-30 12:01:00,
2013-04-30 06:11:00,30.0,26.0,-100.00,North,-999,-999.0,-999.0,86,-99.99,,,-99.99,,2013-04-30 12:11:00,
2013-04-30 06:21:00,30.0,26.0,-100.00,North,-999,-999.0,-999.0,86,-99.99,,,-99.99,,2013-04-30 12:21:00,
2013-04-30 06:31:00,30.0,26.0,-100.00,North,-999,-999.0,-999.0,86,-99.99,,,-99.99,,2013-04-30 12:31:00,
2013-04-30 06:41:00,30.0,26.0,-100.00,North,-999,-999.0,-999.0,86,-99.99,,,-99.99,,2013-04-30 12:41:00,
2013-04-30 06:51:00,31.0,27.0,-100.00,SSE,160,2.0,6.0,87,-99.99,,,-99.99,,2013-04-30 12:51:00,
2013-04-30 07:01:00,31.0,27.0,-100.00,NW,310,2.0,-999.0,87,-99.99,,,-99.99,,2013-04-30 13:01:00,
2013-04-30 07:11:00,31.0,28.0,-100.00,WNW,300,2.0,-999.0,87,-99.99,,,-99.99,,2013-04-30 13:11:00,
2013-04-30 07:21:00,31.0,28.0,-100.00,NW,320,6.0,7.0,87,-99.99,,,-99.99,,2013-04-30 13:21:00,
2013-04-30 07:31:00,31.0,28.0,-100.00,NW,310,1.0,7.0,87,-99.99,,,-99.99,,2013-04-30 13:31:00,
2013-04-30 07:41:00,31.0,28.0,-100.00,NW,310,1.0,7.0,87,-99.99,,,-99.99,,2013-04-30 13:41:00,
2013-04-30 07:51:00,32.0,29.0,-100.00,West,275,3.0,4.0,87,-99.99,,,-99.99,,2013-04-30 13:51:00,
2013-04-30 08:01:00,32.0,29.0,-100.00,West,265,3.0,4.0,87,-99.99,,,-99.99,,2013-04-30 14:01:00,
2013-04-30 08:11:00,32.0,29.0,-100.00,North,-999,-999.0,-999.0,87,-99.99,,,-99.99,,2013-04-30 14:11:00,
2013-04-30 08:21:00,32.0,28.0,-100.00,North,-999,-999.0,-999.0,87,-99.99,,,-99.99,,2013-04-30 14:21:00,
2013-04-30 08:31:00,32.0,28.0,-100.00,North,-999,-999.0,-999.0,87,-99.99,,,-99.99,,2013-04-30 14:31:00,
2013-04-30 08:41:00,32.0,28.0,-100.00,North,-999,-999.0,-999.0,87,-99.99,,,-99.99,,2013-04-30 14:41:00,
2013-04-30 08:51:00,32.0,28.0,-100.00,North,-999,-999.0,-999.0,87,-99.99,,,-99.99,,2013-04-30 14:51:00,
2013-04-30 09:01:00,32.0,28.0,-100.00,North,-999,-999.0,-999.0,87,-99.99,,,-99.99,,2013-04-30 15:01:00,
2013-04-30 10:23:00,40.0,21.0,-100.00,NW,315,12.0,-999.0,44,-99.99,,,-99.99,,2013-04-30 16:23:00,
2013-04-30 10:33:00,39.0,19.0,-100.00,NW,320,7.0,-999.0,44,-99.99,,,-99.99,,2013-04-30 16:33:00,
2013-04-30 10:42:00,38.0,20.0,-100.00,NNW,345,8.0,-999.0,46,-99.99,,,-99.99,,2013-04-30 16:42:00,
2013-04-30 10:52:00,41.0,20.0,-100.00,North,-999,-999.0,-999.0,43,-99.99,,,-99.99,,2013-04-30 16:52:00,
2013-04-30 11:02:00,41.0,21.0,-100.00,NW,325,15.0,20.0,44,-99.99,,,-99.99,,2013-04-30 17:02:00,
2013-04-30 11:11:00,39.0,20.0,-100.00,NW,325,11.0,21.0,46,-99.99,,,-99.99,,2013-04-30 17:11:00,
2013-04-30 11:22:00,39.0,20.0,-100.00,NNW,330,13.0,19.0,45,-99.99,,,-99.99,,2013-04-30 17:22:00,
2013-04-30 11:32:00,42.0,20.0,-100.00,NNW,330,14.0,18.0,41,-99.99,,,-99.99,,2013-04-30 17:32:00,
2013-04-30 11:41:00,42.0,19.0,-100.00,NW,310,14.0,19.0,39,-99.99,,,-99.99,,2013-04-30 17:41:00,
2013-04-30 11:52:00,43.0,18.0,-100.00,NNW,335,13.0,19.0,36,-99.99,,,-99.99,,2013-04-30 17:52:00,
2013-04-30 12:01:00,45.0,19.0,-100.00,NW,320,12.0,21.0,34,-99.99,,,-99.99,,2013-04-30 18:01:00,
2013-04-30 12:11:00,45.0,19.0,-100.00,NW,320,13.0,19.0,34,-99.99,,,-99.99,,2013-04-30 18:11:00,
2013-04-30 12:22:00,43.0,18.0,-100.00,NNW,340,12.0,18.0,36,-99.99,,,-99.99,,2013-04-30 18:22:00,
2013-04-30 12:32:00,44.0,19.0,-100.00,NNW,330,14.0,19.0,37,-99.99,,,-99.99,,2013-04-30 18:32:00,
2013-04-30 12:41:00,42.0,19.0,-100.00,North,10,15.0,20.0,39,-99.99,,,-99.99,,2013-04-30 18:41:00,
2013-04-30 12:51:00,45.0,19.0,-100.00,NW,310,13.0,19.0,35,-99.99,,,-99.99,,2013-04-30 18:51:00,
2013-04-30 13:01:00,44.0,18.0,-100.00,NNW,330,16.0,19.0,35,-99.99,,,-99.99,,2013-04-30 19:01:00,
2013-04-30 13:11:00,42.0,18.0,-100.00,NNW,345,16.0,21.0,37,-99.99,,,-99.99,,2013-04-30 19:11:00,
2013-04-30 13:21:00,44.0,18.0,-100.00,NNW,345,11.0,21.0,35,-99.99,,,-99.99,,2013-04-30 19:21:00,
2013-04-30 13:31:00,43.0,18.0,-100.00,NNW,345,16.0,25.0,35,-99.99,,,-99.99,,2013-04-30 19:31:00,
2013-04-30 13:41:00,43.0,17.0,-100.00,NNW,335,19.0,26.0,34,-99.99,,,-99.99,,2013-04-30 19:41:00,
2013-04-30 13:52:00,42.0,16.0,-100.00,NNW,345,16.0,26.0,33,-99.99,,,-99.99,,2013-04-30 19:52:00,
2013-04-30 14:01:00,43.0,17.0,-100.00,NNW,345,18.0,24.0,33,-99.99,,,-99.99,,2013-04-30 20:01:00,
2013-04-30 14:11:00,43.0,16.0,-100.00,NNW,335,20.0,29.0,32,-99.99,,,-99.99,,2013-04-30 20:11:00,
2013-04-30 14:21:00,42.0,15.0,-100.00,North,355,17.0,27.0,32,-99.99,,,-99.99,,2013-04-30 20:21:00,
2013-04-30 14:32:00,42.0,15.0,-100.00,North,0,14.0,26.0,32,-99.99,,,-99.99,,2013-04-30 20:32:00,
2013-04-30 14:42:00,44.0,15.0,-100.00,NW,320,17.0,21.0,30,-99.99,,,-99.99,,2013-04-30 20:42:00,
2013-04-30 14:52:00,45.0,15.0,-100.00,North,355,13.0,17.0,29,-99.99,,,-99.99,,2013-04-30 20:52:00,
2013-04-30 15:01:00,45.0,14.0,-100.00,NNW,345,16.0,21.0,27,-99.99,,,-99.99,,2013-04-30 21:01:00,
2013-04-30 15:11:00,45.0,14.0,-100.00,NNW,345,16.0,22.0,27,-99.99,,,-99.99,,2013-04-30 21:11:00,
2013-04-30 15:21:00,45.0,14.0,-100.00,North,0,19.0,26.0,27,-99.99,,,-99.99,,2013-04-30 21:21:00,
2013-04-30 15:32:00,46.0,13.0,-100.00,North,350,12.0,24.0,26,-99.99,,,-99.99,,2013-04-30 21:32:00,
2013-04-30 15:42:00,48.0,15.0,-100.00,NNW,345,16.0,24.0,26,-99.99,,,-99.99,,2013-04-30 21:42:00,
2013-04-30 15:52:00,46.0,13.0,-100.00,NNE,20,14.0,22.0,25,-99.99,,,-99.99,,2013-04-30 21:52:00,
2013-04-30 16:02:00,48.0,13.0,-100.00,NW,320,14.0,22.0,23,-99.99,,,-99.99,,2013-04-30 22:02:00,
2013-04-30 16:12:00,47.0,13.0,-100.00,NNW,330,12.0,19.0,24,-99.99,,,-99.99,,2013-04-30 22:12:00,
2013-04-30 16:22:00,46.0,12.0,-100.00,North,10,14.0,22.0,25,-99.99,,,-99.99,,2013-04-30 22:22:00,
2013-04-30 16:32:00,45.0,12.0,-100.00,NNE,30,16.0,23.0,25,-99.99,,,-99.99,,2013-04-30 22:32:00,
2013-04-30 16:41:00,47.0,13.0,-100.00,NNE,30,10.0,21.0,25,-99.99,,,-99.99,,2013-04-30 22:41:00,
2013-04-30 16:52:00,45.0,13.0,-100.00,NNE,25,17.0,23.0,26,-99.99,,,-99.99,,2013-04-30 22:52:00,
2013-04-30 17:02:00,45.0,12.0,-100.00,NNE,25,15.0,24.0,26,-99.99,,,-99.99,,2013-04-30 23:02:00,
2013-04-30 17:11:00,44.0,13.0,-100.00,NNE,25,14.0,21.0,27,-99.99,,,-99.99,,2013-04-30 23:11:00,
2013-04-30 17:21:00,44.0,12.0,-100.00,NE,50,12.0,18.0,27,-99.99,,,-99.99,,2013-04-30 23:21:00,
2013-04-30 17:32:00,45.0,13.0,-100.00,NE,55,16.0,26.0,27,-99.99,,,-99.99,,2013-04-30 23:32:00,
2013-04-30 17:42:00,42.0,11.0,-100.00,NE,40,16.0,24.0,28,-99.99,,,-99.99,,2013-04-30 23:42:00,
2013-04-30 17:52:00,41.0,11.0,-100.00,NE,45,14.0,19.0,29,-99.99,,,-99.99,,2013-04-30 23:52:00,
2013-04-30 18:01:00,40.0,11.0,-100.00,NNE,25,12.0,21.0,29,-99.99,,,-99.99,,2013-05-01 00:01:00,
2013-04-30 18:11:00,40.0,11.0,-100.00,North,10,15.0,22.0,30,-99.99,,,-99.99,,2013-05-01 00:11:00,
2013-04-30 18:21:00,39.0,12.0,-100.00,North,5,17.0,24.0,31,-99.99,,,-99.99,,2013-05-01 00:21:00,
2013-04-30 18:31:00,40.0,13.0,-100.00,North,355,19.0,27.0,32,-99.99,,,-99.99,,2013-05-01 00:31:00,
2013-04-30 18:42:00,38.0,12.0,-100.00,NNW,335,21.0,28.0,34,-99.99,,,-99.99,,2013-05-01 00:42:00,
2013-04-30 18:51:00,36.0,12.0,-100.00,NW,325,18.0,26.0,36,-99.99,,,-99.99,,2013-05-01 00:51:00,
2013-04-30 19:01:00,35.0,13.0,-100.00,NNW,330,24.0,29.0,38,-99.99,,,-99.99,,2013-05-01 01:01:00,
2013-04-30 19:11:00,34.0,13.0,-100.00,NNW,330,19.0,26.0,42,-99.99,,,-99.99,,2013-05-01 01:11:00,
2013-04-30 19:21:00,34.0,14.0,-100.00,North,0,16.0,24.0,42,-99.99,,,-99.99,,2013-05-01 01:21:00,
2013-04-30 19:31:00,34.0,13.0,-100.00,North,0,14.0,23.0,42,-99.99,,,-99.99,,2013-05-01 01:31:00,
2013-04-30 19:41:00,33.0,14.0,-100.00,North,350,17.0,22.0,46,-99.99,,,-99.99,,2013-05-01 01:41:00,
2013-04-30 19:52:00,31.0,15.0,-100.00,North,355,17.0,22.0,51,-99.99,,,-99.99,,2013-05-01 01:52:00,
2013-04-30 20:01:00,30.0,18.0,-100.00,North,0,13.0,20.0,60,-99.99,,,-99.99,,2013-05-01 02:01:00,
2013-04-30 20:11:00,29.0,21.0,-100.00,North,10,12.0,21.0,69,-99.99,,,-99.99,,2013-05-01 02:11:00,
2013-04-30 20:21:00,29.0,22.0,-100.00,NNE,20,10.0,19.0,72,-99.99,,,-99.99,,2013-05-01 02:21:00,
2013-04-30 20:32:00,29.0,22.0,-100.00,North,0,17.0,-999.0,76,-99.99,,,-99.99,,2013-05-01 02:32:00,
2013-04-30 20:42:00,28.0,23.0,-100.00,North,0,13.0,-999.0,79,-99.99,,,-99.99,,2013-05-01 02:42:00,
2013-04-30 20:51:00,28.0,24.0,-100.00,North,350,13.0,-999.0,83,-99.99,,,-99.99,,2013-05-01 02:51:00,
2013-04-30 21:01:00,28.0,24.0,-100.00,North,350,13.0,-999.0,83,-99.99,,,-99.99,,2013-05-01 03:01:00,
2013-04-30 21:11:00,28.0,24.0,-100.00,North,350,13.0,-999.0,83,-99.99,,,-99.99,,2013-05-01 03:11:00,
2013-04-30 21:21:00,28.0,24.0,-100.00,North,350,13.0,-999.0,83,-99.99,,,-99.99,,2013-05-01 03:21:00,
2013-04-30 21:32:00,28.0,24.0,-100.00,North,350,13.0,-999.0,83,-99.99,,,-99.99,,2013-05-01 03:32:00,
2013-04-30 21:43:00,27.0,23.0,-100.00,North,355,16.0,-999.0,87,-99.99,,,-99.99,,2013-05-01 03:43:00,
2013-04-30 21:53:00,26.0,23.0,-100.00,North,0,16.0,21.0,87,-99.99,,,-99.99,,2013-05-01 03:53:00,
2013-04-30 22:03:00,26.0,23.0,-100.00,North,0,13.0,-999.0,87,-99.99,,,-99.99,,2013-05-01 04:03:00,
2013-04-30 22:12:00,26.0,23.0,-100.00,North,0,12.0,24.0,87,-99.99,,,-99.99,,2013-05-01 04:12:00,
2013-04-30 22:22:00,26.0,23.0,-100.00,North,0,12.0,21.0,87,-99.99,,,-99.99,,2013-05-01 04:22:00,
2013-04-30 22:32:00,26.0,23.0,-100.00,North,10,12.0,-999.0,87,-99.99,,,-99.99,,2013-05-01 04:32:00,
2013-04-30 22:42:00,26.0,23.0,-100.00,North,10,12.0,-999.0,87,-99.99,,,-99.99,,2013-05-01 04:42:00,
2013-04-30 22:52:00,26.0,23.0,-100.00,North,10,12.0,-999.0,87,-99.99,,,-99.99,,2013-05-01 04:52:00,
2013-04-30 23:02:00,26.0,23.0,-100.00,North,10,12.0,-999.0,87,-99.99,,,-99.99,,2013-05-01 05:02:00,
2013-04-30 23:11:00,26.0,22.0,-100.00,North,-999,-999.0,-999.0,87,-99.99,,,-99.99,,2013-05-01 05:11:00,
2013-04-30 23:21:00,26.0,22.0,-100.00,NNE,25,11.0,17.0,87,-99.99,,,-99.99,,2013-05-01 05:21:00,
2013-04-30 23:32:00,26.0,22.0,-100.00,North,0,9.0,-999.0,87,-99.99,,,-99.99,,2013-05-01 05:32:00,
2013-04-30 23:41:00,26.0,22.0,-100.00,North,0,9.0,12.0,87,-99.99,,,-99.99,,2013-05-01 05:41:00,
2013-04-30 23:52:00,26.0,22.0,-100.00,North,350,6.0,10.0,87,-99.99,,,-99.99,,2013-05-01 05:52:00,